Location: Batang Balui
(2.7000°N, 113.7833°E)
Time: 23:05:23
(UTC+00:00)

ARIANE 2 DEB - Pass Details

Date: 03 December 2021
Orbit: 465 x 35270 km, 8.0° (Epoch: 27 January)

Event Time Altitude Azimuth Distance (km) Brightness Sun altitude
Rises 10:54:43 0° 280° (W) 2,554 7.8 -10.3°
Reaches altitude 10° 10:56:36 10° 290° (WNW) 1,593 6.4 -10.7°
Maximum altitude 10:59:19 41° 4° (N) 805 3.9 -11.3°
Enters shadow 11:02:40 16° 70° (ENE) 2,113 5.6 -12.1°
